HULIANWAN GAOGUI-03 (H*)

Last updated on Wed Oct 15 2025 00:02:50 GMT+0000 (Coordinated Universal Time)

1 61503U 24181A 25287.20253383 -.00000254 00000+0 00000+0 0 9991 2 61503 0.0216 112.4050 0000690 237.6318 28.7132 1.00266248 4358
UTC large
Height (km)
Speed (km/s)
/
Latitude / Longitude
Inclination (degrees)
Orbital Period (minutes)
Azimuth
Elevation
Range (km)
Doppler Factor

Next 0 passes for location: London (51.5072 / 0.1276)

Sorry there are no passes over London.